"Pseudo-MPEC" for P10OSOh

Created 2019 Jun 19 17:07:34 UT using Find_Orb

Click here for an explanation of pseudo-MPECs

 
 Astrometry: 
     P10OSOh  C2019 06 08h1O9@;/AstrometryJ:ytHdcTx61iJWwL``oI]_9M)h@#^OMx)!FF52
     P10OSOh  C2019 06 08GdTyT@B$w?P7YEap*Y01xR?6[Fi!i?fD@`EoO,9uG0YtEvLQ;cf;F52
     P10OSOh  C2019 06 08R+=AJ]?i#])redacted;,/R9#'`3:Aa_=363v#((bEJf(C/`'9bgF52
     P10OSOh  C2019 06 08n%OAljS)3A@F=wOF9clickNJ%WmiqN(3p*(vd1q0U3_G_YGVVvVIF52
     P10OSOh  C2019 06 09%(\Nq-Vy@L^#4t2ib*Nci-0F=hereaff]Ie@/utOHXR%4@S/o+8XF51
     P10OSOh  C2019 06 09NyCN=*+]Jh,-Mi(!r*YJ/GD=G.2,Fk[E4/r:Tv\`igkLhcV!h@HfF51
     P10OSOh  C2019 06 09]JtoV@:k@NU6Ijv`+ROLCU;afp),soiCj8SdSy^[TO\#?2cJemwbF51
     P10OSOh KC2019 06 11l#h,t5V=20@dc?#xsRZPKGnP2;'t=Mx,i^Z%:Rk:b1Y%P6##B8TmH21
     P10OSOh KC2019 06 11_HwK=$EZQwfu6GTPyEE;WX@anwe65s]Nu[y8_yrkP9ff:@=m?.vtH21
     P10OSOh KC2019 06 11(8h%WXoP;C%Pwq6Pi[\GmvAdC`ZQ7T3Ov9`TbjI_o\fjf/%formFH21
     P10OSOh ^C2019 06 13:vGX@a8KxF_'BRgP:WSS-6FQV0VIV\=R]uLEgxw3explanation7695
     P10OSOh ^C2019 06 13%/iF9]XG68T_`]o`%S$W6S*5A\3.slr8eyJ2icAp'SqC9vvq-gKk695
     P10OSOh ^C2019 06 13FM5T'tl;D$+aEUcLb4J!dMrgx=jxEYREa3b5%WY]bu]q^cYs35]h695

Station data:
(695) Kitt Peak  (N31.958398 W111.594670)  US/Arizona.
(F51) Pan-STARRS 1, Haleakala  (N20.707235 W156.255910)  US/Hawaii.
   Observers N. Primak, A. Schultz, S. Watters, J. Thiel, T. Goggia. Measurer
   PS1 Science Consortium. 1.8-m Ritchey-Chrétien + CCD.
(F52) Pan-STARRS 2, Haleakala  (N20.707384 W156.255910)  US/Hawaii. 1.8-m
   Ritchey-Chrétien + CCD.
(H21) Astronomical Research Observatory, Westfield  (N39.483057 W87.968270)
   US/Illinois. 0.76-m f/3.0 astrograph + CCD.

Orbital elements:  P10OSOh
   Perihelion 2019 Sep 17.287896 +/- 0.0515 TT =  6:54:34 (JD 2458743.787896)
Epoch 2019 Jun 13.0 TT = JDT 2458647.5   Earth MOID: 0.1750   Ve: 0.0965
M 315.17822078 +/- 0.46             (J2000 ecliptic)          AutoNEOCP
n   0.46549754 +/- 0.00485          Peri.  172.30971 +/- 0.39
a   1.64888785 +/- 0.0114           Node   195.38432 +/- 0.39
e   0.5067410 +/- 0.00373           Incl.   17.60278 +/- 0.15
P   2.12/773.35d           H 21.2   G  0.15   U  9.2  
q 0.81332871 +/- 0.000647    Q 2.48444698 +/- 0.0236
From 13 observations 2019 June 8-13; mean residual 0".18
Residuals in arcseconds: 
190608 F52  .06-  .14+    190609 F51  .04+  .06-    190613 695  .07-  .00     
190608 F52  .16+  .23+    190609 F51  .10-  .17-    190613 695  .04+  .01+    
190608 F52  .36+  .50-    190611 H21  .09-  .18+    190613 695  .01+  .06-    
190608 F52  .41-  .29+    190611 H21  .13+  .05-    
190609 F51  .04-  .06-    190611 H21  .04+  .06+    

Ephemerides (geocentric):
Date (UTC) HH   RA              Dec         delta   r     elong  mag " sig PA
---- -- -- --  -------------   -----------  ------ ------ -----  --- ---- ---
2019 06 19 17  17 39 04.006   +31 24 38.25  .47462 1.3462 125.1 21.8 4.08  74
2019 06 19 18  17 38 59.668   +31 26 20.25  .47441 1.3459 125.1 21.8 4.12  74
2019 06 19 19  17 38 55.324   +31 28 02.22  .47420 1.3456 125.0 21.8 4.16  74
2019 06 19 20  17 38 50.973   +31 29 44.18  .47400 1.3452 125.0 21.8 4.20  74
2019 06 19 21  17 38 46.617   +31 31 26.12  .47379 1.3449 125.0 21.8 4.24  74
2019 06 19 22  17 38 42.254   +31 33 08.03  .47358 1.3446 124.9 21.8 4.28  74
2019 06 19 23  17 38 37.886   +31 34 49.93  .47338 1.3443 124.9 21.8 4.32  74
2019 06 20 00  17 38 33.512   +31 36 31.80  .47317 1.3440 124.9 21.8 4.36  74
2019 06 20 01  17 38 29.131   +31 38 13.66  .47297 1.3436 124.8 21.8 4.40  74
2019 06 20 02  17 38 24.745   +31 39 55.49  .47276 1.3433 124.8 21.8 4.44  74
2019 06 20 03  17 38 20.353   +31 41 37.30  .47256 1.3430 124.8 21.8 4.49  74
2019 06 20 04  17 38 15.954   +31 43 19.09  .47235 1.3427 124.7 21.8 4.53  74
2019 06 20 05  17 38 11.550   +31 45 00.86  .47215 1.3423 124.7 21.8 4.57  74
2019 06 20 06  17 38 07.139   +31 46 42.61  .47194 1.3420 124.7 21.8 4.61  74
2019 06 20 07  17 38 02.723   +31 48 24.34  .47174 1.3417 124.6 21.8 4.65  74
2019 06 20 08  17 37 58.301   +31 50 06.04  .47154 1.3414 124.6 21.8 4.70  74
2019 06 20 09  17 37 53.872   +31 51 47.72  .47133 1.3410 124.6 21.8 4.74  74
2019 06 20 10  17 37 49.438   +31 53 29.38  .47113 1.3407 124.6 21.8 4.78  74
2019 06 20 11  17 37 44.998   +31 55 11.02  .47093 1.3404 124.5 21.8 4.82  74
2019 06 20 12  17 37 40.551   +31 56 52.64  .47072 1.3401 124.5 21.8 4.87  74
2019 06 20 13  17 37 36.099   +31 58 34.23  .47052 1.3398 124.5 21.8 4.91  74
2019 06 20 14  17 37 31.641   +32 00 15.80  .47032 1.3394 124.4 21.8 4.95  74
2019 06 20 15  17 37 27.176   +32 01 57.35  .47011 1.3391 124.4 21.8 5.00  74
2019 06 20 16  17 37 22.706   +32 03 38.88  .46991 1.3388 124.4 21.8 5.04  74
2019 06 20 17  17 37 18.230   +32 05 20.38  .46971 1.3385 124.3 21.8 5.09  75
2019 06 20 18  17 37 13.747   +32 07 01.86  .46951 1.3381 124.3 21.8 5.13  75
2019 06 20 19  17 37 09.259   +32 08 43.32  .46931 1.3378 124.3 21.8 5.18  75
2019 06 20 20  17 37 04.765   +32 10 24.76  .46911 1.3375 124.2 21.8 5.22  75
2019 06 20 21  17 37 00.264   +32 12 06.17  .46890 1.3372 124.2 21.8 5.27  75
2019 06 20 22  17 36 55.758   +32 13 47.55  .46870 1.3368 124.2 21.8 5.31  75
2019 06 20 23  17 36 51.246   +32 15 28.92  .46850 1.3365 124.1 21.8 5.36  75
2019 06 21 00  17 36 46.728   +32 17 10.26  .46830 1.3362 124.1 21.8 5.40  75
2019 06 21 01  17 36 42.203   +32 18 51.58  .46810 1.3359 124.1 21.8 5.45  75
2019 06 21 02  17 36 37.673   +32 20 32.87  .46790 1.3355 124.0 21.8 5.49  75
2019 06 21 03  17 36 33.137   +32 22 14.14  .46770 1.3352 124.0 21.8 5.54  75
2019 06 21 04  17 36 28.594   +32 23 55.38  .46750 1.3349 124.0 21.8 5.59  75
2019 06 21 05  17 36 24.046   +32 25 36.60  .46730 1.3346 123.9 21.8 5.63  75
2019 06 21 06  17 36 19.492   +32 27 17.80  .46710 1.3343 123.9 21.8 5.68  75
2019 06 21 07  17 36 14.931   +32 28 58.97  .46690 1.3339 123.9 21.8 5.73  75
2019 06 21 08  17 36 10.365   +32 30 40.12  .46670 1.3336 123.8 21.8 5.77  75
2019 06 21 09  17 36 05.793   +32 32 21.24  .46651 1.3333 123.8 21.8 5.82  75
2019 06 21 10  17 36 01.215   +32 34 02.33  .46631 1.3330 123.8 21.8 5.87  75
2019 06 21 11  17 35 56.630   +32 35 43.41  .46611 1.3326 123.7 21.8 5.91  75
2019 06 21 12  17 35 52.040   +32 37 24.45  .46591 1.3323 123.7 21.8 5.96  75
2019 06 21 13  17 35 47.444   +32 39 05.47  .46571 1.3320 123.7 21.8 6.01  75
2019 06 21 14  17 35 42.842   +32 40 46.47  .46551 1.3317 123.6 21.8 6.06  75
2019 06 21 15  17 35 38.233   +32 42 27.44  .46532 1.3313 123.6 21.8 6.11  75
2019 06 21 16  17 35 33.619   +32 44 08.39  .46512 1.3310 123.6 21.7 6.16  75